timestamp,wind_dir_avg,wind_spd_avg,wind_spd_max_dir,wind_spd_gust,battery_voltage,lat,long
2023-01-10 00:04:00+00:00,273.0,8.23,271.0,10.63,12.33,47.59359,-54.27349
2023-01-10 00:14:00+00:00,283.0,5.13,283.0,7.74,12.33,47.59359,-54.27349
2023-01-10 00:24:00+00:00,299.0,4.49,286.0,6.66,12.33,47.59359,-54.27349
2023-01-10 00:34:00+00:00,293.0,4.84,296.0,5.97,12.33,47.59359,-54.27349
2023-01-10 00:44:00+00:00,306.0,4.61,309.0,5.76,12.33,47.59359,-54.27349
2023-01-10 00:54:00+00:00,320.0,6.0,317.0,7.06,12.33,47.59359,-54.27349
2023-01-10 01:04:00+00:00,301.0,5.05,305.0,6.02,12.33,47.59359,-54.27349
2023-01-10 01:14:00+00:00,310.0,5.6,305.0,7.69,12.25,47.59359,-54.27349
2023-01-10 01:24:00+00:00,301.0,4.42,289.0,6.84,12.25,47.59359,-54.27349
2023-01-10 01:34:00+00:00,301.0,3.95,299.0,5.46,12.25,47.59359,-54.27349
2023-01-10 01:44:00+00:00,304.0,4.86,304.0,5.68,12.25,47.59359,-54.27349
2023-01-10 01:54:00+00:00,306.0,4.74,302.0,5.85,12.25,47.59359,-54.27349
2023-01-10 02:04:00+00:00,303.0,4.65,306.0,5.91,12.25,47.59359,-54.27349
2023-01-10 02:14:00+00:00,290.0,4.28,296.0,5.36,12.25,47.59359,-54.27349
2023-01-10 02:24:00+00:00,299.0,6.5,299.0,7.55,12.25,47.59359,-54.27349
2023-01-10 02:34:00+00:00,295.0,6.65,298.0,7.37,12.25,47.59359,-54.27349
2023-01-10 02:44:00+00:00,300.0,4.84,290.0,6.89,12.25,47.59359,-54.27349
2023-01-10 02:54:00+00:00,303.0,5.54,297.0,7.2,12.25,47.59359,-54.27349
2023-01-10 03:04:00+00:00,306.0,5.98,303.0,7.58,12.25,47.59359,-54.27349
2023-01-10 03:14:00+00:00,304.0,6.06,300.0,7.37,12.17,47.59359,-54.27349
2023-01-10 03:24:00+00:00,310.0,7.31,308.0,8.09,12.17,47.59359,-54.27349
2023-01-10 03:34:00+00:00,334.0,6.14,318.0,8.55,12.17,47.59359,-54.27349
2023-01-10 03:44:00+00:00,346.0,5.59,355.0,6.58,12.17,47.59359,-54.27349
2023-01-10 03:54:00+00:00,357.0,4.85,358.0,5.38,12.17,47.59359,-54.27349
2023-01-10 04:04:00+00:00,326.0,5.25,310.0,7.38,12.17,47.59359,-54.27349
2023-01-10 04:14:00+00:00,309.0,5.64,306.0,7.42,12.17,47.59359,-54.27349
2023-01-10 04:24:00+00:00,342.0,2.88,304.0,4.68,12.17,47.59359,-54.27349
2023-01-10 04:34:00+00:00,343.0,2.24,290.0,5.12,12.17,47.59359,-54.27349
2023-01-10 04:44:00+00:00,356.0,2.35,352.0,2.99,12.17,47.59359,-54.27349
2023-01-10 04:54:00+00:00,340.0,3.11,317.0,4.22,12.17,47.59359,-54.27349
2023-01-10 05:04:00+00:00,352.0,3.94,346.0,4.67,12.17,47.59359,-54.27349
2023-01-10 05:14:01+00:00,6.0,2.74,12.0,3.78,12.09,47.59359,-54.27349
2023-01-10 05:24:01+00:00,355.0,3.25,358.0,3.84,12.09,47.59359,-54.27349
2023-01-10 05:34:01+00:00,15.0,3.38,50.0,5.65,12.09,47.59359,-54.27349
2023-01-10 05:44:01+00:00,22.0,3.38,39.0,4.62,12.09,47.59359,-54.27349
2023-01-10 05:54:01+00:00,5.0,4.22,5.0,5.31,12.09,47.59359,-54.27349
2023-01-10 06:04:01+00:00,5.0,4.28,8.0,4.86,12.09,47.59359,-54.27349
2023-01-10 06:14:00+00:00,21.0,3.75,49.0,5.44,12.09,47.59359,-54.27349
2023-01-10 06:24:00+00:00,32.0,4.6,42.0,6.05,12.09,47.59359,-54.27349
2023-01-10 06:34:00+00:00,33.0,4.88,43.0,6.66,12.09,47.59359,-54.27349
2023-01-10 06:44:00+00:00,33.0,5.28,48.0,6.49,12.09,47.59359,-54.27349
2023-01-10 06:54:00+00:00,32.0,5.75,39.0,6.89,12.09,47.59359,-54.27349
2023-01-10 07:04:00+00:00,35.0,5.8,37.0,6.71,12.09,47.59359,-54.27349
2023-01-10 07:14:00+00:00,26.0,4.5,48.0,6.06,12.09,47.59359,-54.27349
2023-01-10 07:24:00+00:00,44.0,4.1,62.0,5.96,12.09,47.59359,-54.27349
2023-01-10 07:34:00+00:00,75.0,3.48,89.0,6.03,12.09,47.59359,-54.27349
2023-01-10 07:44:00+00:00,53.0,4.67,49.0,5.55,12.09,47.59359,-54.27349
2023-01-10 07:54:00+00:00,58.0,3.15,68.0,4.94,12.09,47.59359,-54.27349
2023-01-10 08:04:00+00:00,52.0,2.98,62.0,4.07,12.09,47.59359,-54.27349
2023-01-10 08:14:00+00:00,60.0,3.0,69.0,4.82,12.01,47.59359,-54.27349
2023-01-10 08:24:00+00:00,44.0,3.56,63.0,7.27,12.01,47.59359,-54.27349
2023-01-10 08:34:00+00:00,54.0,3.12,57.0,7.46,12.01,47.59359,-54.27349
2023-01-10 08:44:00+00:00,40.0,3.9,59.0,7.22,12.01,47.59359,-54.27349
2023-01-10 08:54:00+00:00,57.0,4.38,69.0,8.26,12.01,47.59359,-54.27349
2023-01-10 09:04:00+00:00,39.0,4.81,52.0,7.02,12.01,47.59359,-54.27349
2023-01-10 09:14:01+00:00,51.0,5.36,63.0,8.21,12.01,47.59359,-54.27349
2023-01-10 09:24:01+00:00,52.0,4.91,61.0,7.74,12.01,47.59359,-54.27349
2023-01-10 09:34:01+00:00,48.0,5.21,61.0,8.09,12.01,47.59359,-54.27349
2023-01-10 09:44:01+00:00,48.0,6.56,55.0,9.13,12.01,47.59359,-54.27349
2023-01-10 09:54:01+00:00,47.0,8.01,52.0,9.93,12.01,47.59359,-54.27349
2023-01-10 10:04:01+00:00,45.0,7.94,44.0,10.8,12.01,47.59359,-54.27349
2023-01-10 10:14:00+00:00,43.0,6.97,52.0,9.8,12.01,47.59359,-54.27349
2023-01-10 10:24:00+00:00,44.0,8.47,51.0,10.49,12.01,47.59359,-54.27349
2023-01-10 10:34:00+00:00,51.0,7.99,54.0,9.91,12.01,47.59359,-54.27349
2023-01-10 10:44:00+00:00,58.0,9.21,60.0,10.02,12.01,47.59359,-54.27349
2023-01-10 10:54:00+00:00,53.0,7.98,53.0,9.9,12.01,47.59359,-54.27349
2023-01-10 11:04:00+00:00,54.0,8.88,55.0,10.22,12.01,47.59359,-54.27349
2023-01-10 11:14:00+00:00,52.0,8.04,51.0,10.27,12.01,47.59359,-54.27349
2023-01-10 11:24:00+00:00,44.0,9.0,51.0,10.48,12.01,47.59359,-54.27349
2023-01-10 11:34:00+00:00,42.0,9.75,47.0,10.89,12.01,47.59359,-54.27349
2023-01-10 11:44:00+00:00,40.0,8.41,46.0,10.38,12.01,47.59359,-54.27349
2023-01-10 11:54:00+00:00,43.0,10.3,38.0,11.45,12.01,47.59359,-54.27349
2023-01-10 12:04:00+00:00,41.0,9.65,40.0,11.35,12.01,47.59359,-54.27349
2023-01-10 13:14:00+00:00,68.0,9.93,75.0,12.99,12.01,47.59359,-54.27349
2023-01-10 13:24:00+00:00,69.0,10.84,74.0,13.39,12.01,47.59359,-54.27349
2023-01-10 13:34:00+00:00,56.0,10.17,60.0,11.89,12.01,47.59359,-54.27349
2023-01-10 13:44:00+00:00,56.0,11.19,62.0,13.76,12.01,47.59359,-54.27349
2023-01-10 13:54:00+00:00,49.0,10.48,56.0,13.5,12.01,47.59359,-54.27349
2023-01-10 14:04:00+00:00,47.0,11.62,52.0,13.25,12.01,47.59359,-54.27349
2023-01-10 14:14:00+00:00,52.0,12.21,54.0,14.56,12.09,47.59359,-54.27349
2023-01-10 14:24:00+00:00,53.0,12.17,59.0,14.11,12.09,47.59359,-54.27349
2023-01-10 14:34:00+00:00,54.0,12.98,58.0,14.84,12.09,47.59359,-54.27349
2023-01-10 14:44:00+00:00,49.0,13.14,51.0,15.52,12.09,47.59359,-54.27349
2023-01-10 14:54:00+00:00,56.0,13.09,57.0,14.48,12.09,47.59359,-54.27349
2023-01-10 15:04:00+00:00,55.0,13.01,56.0,14.58,12.09,47.59359,-54.27349
2023-01-10 15:14:00+00:00,42.0,11.24,41.0,12.77,12.49,47.59359,-54.27349
2023-01-10 15:24:00+00:00,25.0,9.86,35.0,12.33,12.49,47.59359,-54.27349
2023-01-10 15:34:00+00:00,24.0,10.21,34.0,12.32,12.49,47.59359,-54.27349
2023-01-10 15:44:00+00:00,30.0,10.63,38.0,12.79,12.49,47.59359,-54.27349
2023-01-10 15:54:00+00:00,27.0,10.87,29.0,12.88,12.49,47.59359,-54.27349
2023-01-10 16:04:00+00:00,23.0,11.71,33.0,14.05,12.49,47.59359,-54.27349
2023-01-10 16:14:00+00:00,24.0,10.58,36.0,12.97,12.97,47.59359,-54.27349
2023-01-10 16:24:00+00:00,28.0,10.52,38.0,13.28,12.97,47.59359,-54.27349
2023-01-10 16:34:00+00:00,21.0,11.09,30.0,13.08,12.97,47.59359,-54.27349
2023-01-10 16:44:00+00:00,29.0,12.25,42.0,15.37,12.97,47.59359,-54.27349
2023-01-10 16:54:00+00:00,18.0,10.21,31.0,12.5,12.97,47.59359,-54.27349
2023-01-10 17:04:00+00:00,33.0,12.43,36.0,14.58,12.97,47.59359,-54.27349
2023-01-10 17:14:01+00:00,33.0,12.23,35.0,14.21,13.21,47.59359,-54.27349
2023-01-10 17:24:01+00:00,40.0,12.46,50.0,14.91,13.21,47.59359,-54.27349
2023-01-10 17:34:01+00:00,34.0,12.11,34.0,14.23,13.21,47.59359,-54.27349
2023-01-10 17:44:01+00:00,30.0,10.12,52.0,13.23,13.21,47.59359,-54.27349
2023-01-10 17:54:01+00:00,19.0,9.54,53.0,12.49,13.21,47.59359,-54.27349
2023-01-10 18:04:01+00:00,45.0,11.58,51.0,13.63,13.21,47.59359,-54.27349
2023-01-10 18:14:00+00:00,48.0,11.77,53.0,15.51,13.53,47.59359,-54.27349
2023-01-10 18:24:00+00:00,32.0,12.07,34.0,14.59,13.53,47.59359,-54.27349
2023-01-10 18:34:00+00:00,35.0,10.69,50.0,12.98,13.53,47.59359,-54.27349
2023-01-10 18:44:00+00:00,23.0,10.78,37.0,13.23,13.53,47.59359,-54.27349
2023-01-10 18:54:00+00:00,45.0,11.58,52.0,15.38,13.53,47.59359,-54.27349
2023-01-10 19:04:00+00:00,47.0,10.89,51.0,12.88,13.53,47.59359,-54.27349
2023-01-10 19:14:01+00:00,44.0,13.52,46.0,16.47,13.44,47.59359,-54.27349
2023-01-10 19:24:01+00:00,48.0,11.76,52.0,15.58,13.44,47.59359,-54.27349
2023-01-10 19:34:01+00:00,33.0,9.85,43.0,12.9,13.44,47.59359,-54.27349
2023-01-10 19:44:01+00:00,40.0,13.7,48.0,15.85,13.44,47.59359,-54.27349
2023-01-10 19:54:01+00:00,40.0,10.97,34.0,13.63,13.44,47.59359,-54.27349
2023-01-10 20:04:01+00:00,45.0,12.54,54.0,15.85,13.44,47.59359,-54.27349
2023-01-10 21:14:00+00:00,37.0,12.56,36.0,14.28,12.41,47.59359,-54.27349
2023-01-10 21:24:00+00:00,39.0,9.99,54.0,14.42,12.41,47.59359,-54.27349
2023-01-10 21:34:00+00:00,49.0,12.6,53.0,15.53,12.41,47.59359,-54.27349
2023-01-10 21:44:00+00:00,45.0,10.45,50.0,12.8,12.41,47.59359,-54.27349
2023-01-10 21:54:00+00:00,45.0,10.43,51.0,13.61,12.41,47.59359,-54.27349
2023-01-10 22:04:00+00:00,34.0,10.35,40.0,12.28,12.41,47.59359,-54.27349
2023-01-10 22:14:00+00:00,37.0,9.03,49.0,11.28,12.41,47.59359,-54.27349
2023-01-10 22:24:00+00:00,39.0,10.01,49.0,12.31,12.41,47.59359,-54.27349
2023-01-10 22:34:00+00:00,43.0,10.79,51.0,12.38,12.41,47.59359,-54.27349
2023-01-10 22:44:00+00:00,30.0,8.18,46.0,10.81,12.41,47.59359,-54.27349
2023-01-10 22:54:00+00:00,25.0,6.92,32.0,8.15,12.41,47.59359,-54.27349
2023-01-10 23:04:00+00:00,32.0,6.29,40.0,10.61,12.41,47.59359,-54.27349
2023-01-10 23:14:00+00:00,30.0,6.67,33.0,8.02,12.41,47.59359,-54.27349
2023-01-10 23:24:00+00:00,30.0,7.23,25.0,9.04,12.41,47.59359,-54.27349
2023-01-10 23:34:00+00:00,25.0,6.85,23.0,8.61,12.41,47.59359,-54.27349
2023-01-10 23:44:00+00:00,32.0,6.77,38.0,7.75,12.41,47.59359,-54.27349
2023-01-10 23:54:00+00:00,30.0,7.26,38.0,8.59,12.41,47.59359,-54.27349
